Location: Moscow
(55.7500°N, 37.5830°E)
Time: 07:40:26
(UTC+03:00)

N. Korean satellite - Pass Details

Date: 31 October 2021
Orbit: 446 x 495 km, 97.3° (Epoch: 04 December)

Event Time Altitude Azimuth Distance (km) Brightness Sun altitude
Rises 05:12:12 0° 21° (NNE) 2,595 10.6 -20.2°
Reaches altitude 10° 05:14:31 10° 34° (NE) 1,702 9.8 -19.9°
Maximum altitude 05:17:42 27° 94° (E) 970 8.8 -19.5°
Drops below altitude 10° 05:20:49 10° 154° (SSE) 1,670 9.6 -19.0°
Sets 05:23:05 0° 167° (SSE) 2,536 10.4 -18.7°
